Weather History for LKCV - October, 2012

Change the Weather History Date:

Tuesday, October 9, 2012

  Actual Average Record
Temperature  
Mean Temperature 47 °F -  
Max Temperature 55 °F - - ()
Min Temperature 39 °F - - ()
Degree Days  
Heating Degree Days 18    
Moisture  
Dew Point 40 °F    
Average Humidity 79    
Maximum Humidity 87    
Minimum Humidity 67    
Precipitation  
Precipitation 0.00 in - - ()
Sea Level Pressure  
Sea Level Pressure 29.87 in    
Wind  
Wind Speed 4 mph ()    
Max Wind Speed 13 mph    
Max Gust Speed -    
Visibility 6.2 miles    
Events      
T = Trace of Precipitation, MM = Missing Value Source: Averaged Metar Reports

Daily Weather History Graph

Daily Weather History Graph

Search for Another Location

Airport or City:

Trip Planner

Search our weather history database for the weather conditions in past years. The results will help you decide how hot, cold, wet, or windy it might be!

Date:

Astronomy

Oct. 09, 2012 Rise Set
Actual Time 7:11 AM CEST 6:19 PM CEST
Civil Twilight 6:38 AM CEST 6:51 PM CEST
Nautical Twilight 6:01 AM CEST 7:28 PM CEST
Astronomical Twilight 5:23 AM CEST 8:06 PM CEST
Moon No Moon Rise 3:07 PM CEST (10/9)
Length of Visible Light 12h 12m
Length of Day
11h 08m
Last Quarter, 39% of the Moon is Illuminated
Oct 9
Last Quarter
Oct 15
New
Oct 22
First Quarter
Oct 29
Full
Nov 7
Last Quarter

Hourly Weather History & Observations

Time (CEST) Temp. Windchill Dew Point Humidity Pressure Visibility Wind Dir Wind Speed Gust Speed Precip Events Conditions
1:00 AM 41.0 °F - 37.4 °F 87% 29.98 in - ESE 2.3 mph - N/A   Clear
3:00 AM 39.2 °F - 35.6 °F 87% 29.92 in - SE 2.3 mph - N/A   Clear
4:00 AM 41.0 °F - 35.6 °F 81% 29.89 in - SE 2.3 mph - N/A   Clear
5:00 AM 39.2 °F 35.0 °F 35.6 °F 87% 29.86 in - SSE 5.8 mph - N/A   Clear
6:00 AM 41.0 °F 38.0 °F 35.6 °F 81% 29.83 in - SE 4.6 mph - N/A   Clear
7:00 AM 39.2 °F - 35.6 °F 87% 29.83 in - East 2.3 mph - N/A   Clear
9:00 AM 44.6 °F 43.1 °F 39.2 °F 81% 29.80 in 6.2 mi ESE 3.5 mph - N/A   Mostly Cloudy
10:00 AM 46.4 °F - 41.0 °F 81% 29.83 in 6.2 mi Variable 2.3 mph - N/A   Mostly Cloudy
11:00 AM 50.0 °F - 41.0 °F 71% 29.83 in 6.2 mi Variable 2.3 mph - N/A   Mostly Cloudy
12:00 PM 51.8 °F - 42.8 °F 71% 29.83 in 6.2 mi Variable 2.3 mph - N/A   Mostly Cloudy
1:00 PM 51.8 °F - 44.6 °F 76% 29.83 in 6.2 mi NNW 8.1 mph - N/A   Mostly Cloudy
2:00 PM 53.6 °F - 44.6 °F 72% 29.83 in 6.2 mi NW 12.7 mph - N/A   Mostly Cloudy
3:00 PM 55.4 °F - 44.6 °F 67% 29.83 in 6.2 mi WNW 9.2 mph - N/A   Scattered Clouds
4:00 PM 53.6 °F - 42.8 °F 67% 29.83 in 6.2 mi NW 12.7 mph - N/A   Mostly Cloudy
5:00 PM 53.6 °F - 42.8 °F 67% 29.83 in 6.2 mi NNW 9.2 mph - N/A   Mostly Cloudy
6:00 PM 48.2 °F - 42.8 °F 82% 29.86 in - West 5.8 mph - N/A   Clear
7:00 PM 48.2 °F - 41.0 °F 76% 29.89 in - NW 6.9 mph - N/A   Clear
8:00 PM 48.2 °F - 39.2 °F 71% 29.92 in - NW 6.9 mph - N/A   Clear
9:00 PM 42.8 °F 40.1 °F 39.2 °F 87% 29.95 in - West 4.6 mph - N/A   Clear
10:00 PM 41.0 °F 37.1 °F 37.4 °F 87% 29.95 in - West 5.8 mph - N/A   Clear
11:00 PM 41.0 °F 38.0 °F 37.4 °F 87% 29.95 in - WSW 4.6 mph - N/A   Clear